Content
SEND FEEDBACK

Daily
Averages
Monthly
Summary
United States of America

MCCORMICK, SOUTH CAROLINA


Home > North America > United States > South Carolina
Elevation: 15 meters     Latitude: 33 55N     Longitude: 082 09W

WEATHER
 
SELECT A DAY
Number of Records: 148,003;   Date Range: 5/24/00 - 7/27/14
 
SHARE

PRINT THIS DATA

[ ← Previous Day ]
WEATHER ALMANAC - 31 JANUARY, 2013
[ Next Day → ]
[ °F ]   °C
Weather ElementAverageHighLow
Temperature6.2 °C10 °C (3:56 pm)2.8 °C (6:56 am)
Dewpoint-4 °C6.7 °C (12:56 am)-8.3 °C (4:56 pm)
Humidity50.4 %83 % (12:56 am)27 % (4:56 pm)
Barometer1015.2 hPa1020.7 hPa (10:56 pm)1005.1 hPa (12:56 am)
Wind Speed21.1 km/h35.2 km/h (12:56 am)
Wind Gust51.8 km/h (12:56 am)
Weather ElementAverage
Visibility15.9 km
Wind DirectionWSW (260 °)

Weather ElementTotal
Precipitation---
Heating Degree Days11.9 (Base 18.3)
Averaged from 22 records on 31 January, 2013
WEATHER CONDITIONS BREAKOUT
WIND DIRECTION BREAKOUT
WEATHER BY HOUR - 31 JANUARY, 2013
[ °F ]   °C
Local TimeTemperatureDewpointHumidityBarometerVisibilityWind DirectionWind SpeedGust SpeedPrecipitationEventsConditions
12:56 AM9.4 °C6.7 °C83 %1005.1 hPa16.1 kmWSW (250°)35.2 km/h51.8 km/h0 mmOvercast
1:56 AM7.8 °C3.3 °C73 %1007.1 hPa16.1 kmWSW (250°)31.5 km/h48.1 km/hScattered Clouds
2:56 AM6.7 °C-1.1 °C58 %1008.5 hPa16.1 kmWSW (250°)27.8 km/h48.1 km/hMostly Cloudy
3:56 AM6.1 °C-2.2 °C56 %1009.5 hPa16.1 kmWest (260°)29.6 km/h48.1 km/hClear
4:56 AM5 °C-2.2 °C60 %1010.5 hPa16.1 kmWSW (250°)22.2 km/h37 km/hClear
5:56 AM3.3 °C-3.3 °C62 %1011.9 hPa16.1 kmWest (260°)20.4 km/h37 km/h0 mmSnowLight Snow
6:56 AM2.8 °C-3.9 °C62 %1013.9 hPa14.5 kmWest (260°)18.5 km/h29.6 km/h0 mmSnowLight Snow
7:56 AM2.8 °C-5 °C57 %1014.6 hPa14.5 kmWest (270°)16.7 km/h29.6 km/h0 mmSnowLight Snow
8:56 AM3.9 °C-5 °C53 %1015.9 hPa16.1 kmWNW (290°)22.2 km/h33.3 km/h0 mmClear
9:56 AM5 °C-5.6 °C47 %1016.6 hPa16.1 kmWest (270°)22.2 km/h44.4 km/hClear
10:56 AM6.1 °C-5 °C45 %1016.9 hPa16.1 kmWest (270°)25.9 km/h40.7 km/hClear
11:56 AM7.8 °C-6.1 °C37 %1017.3 hPa16.1 kmWest (270°)16.7 km/h44.4 km/hClear
12:56 PM8.3 °C-6.7 °C34 %1016.6 hPa16.1 kmWest (270°)18.5 km/h46.3 km/hClear
1:56 PM9.4 °C-6.7 °C32 %1016.6 hPa16.1 kmWest (270°)20.4 km/h44.4 km/hClear
3:56 PM10 °C-6.1 °C32 %1017.3 hPa16.1 kmWest (280°)27.8 km/h46.3 km/hClear
4:56 PM10 °C-8.3 °C27 %1017.6 hPa16.1 kmWest (280°)20.4 km/h38.9 km/hClear
5:56 PM8.9 °C-7.8 °C30 %1017.9 hPa16.1 kmWest (280°)14.8 km/h25.9 km/hClear
6:56 PM6.7 °C-6.1 °C40 %1019 hPa16.1 kmWSW (240°)11.1 km/hClear
7:56 PM4.4 °C-5 °C51 %1019.3 hPa16.1 kmWSW (240°)9.3 km/hClear
9:56 PM4.4 °C-3.9 °C55 %1020.3 hPa16.1 kmWSW (240°)18.5 km/hClear
10:56 PM3.9 °C-3.9 °C57 %1020.7 hPa16.1 kmWSW (240°)13 km/hClear
11:56 PM3.9 °C-3.9 °C57 %1020.7 hPa16.1 kmSW (230°)20.4 km/hClear
Hourly data recorded from KGRD, located 0 kilometers away from McCormick, South Carolina







STORIES FROM OUR PARTNERS